EW8485 Weather Reports


time (UTC)temp
C
wind
direction
speed
KPH
gust
KPH
rain 1hr
cm
rain 24hr
cm
rain mn
cm
humidity
%
barometer
mb
20260502163214 20 63 4.8 20.9 0.00 4.72 0.00 60 1016.7
20260502162716 20 295 4.8 17.7 0.00 4.78 0.00 61 1016.7
20260502162209 20 43 4.8 12.9 0.00 4.83 0.00 63 1016.8
20260502161709 20 319 3.2 12.9 0.00 5.13 0.00 63 1016.7
20260502161207 20 293 3.2 11.3 0.00 5.92 0.00 65 1016.8
20260502160939 19 355 4.8 14.5 0.00 6.45 0.00 68 1016.8
20260502160439 19 75 4.8 14.5 0.00 6.55 0.00 65 1016.8
20260502152157 18 349 3.2 14.5 0.00 6.58 0.00 72 1016.6
20260502151926 18 41 4.8 19.3 0.00 6.58 0.00 73 1016.7
20260502151156 18 17 4.8 19.3 0.00 6.58 0.00 73 1016.7
20260502150653 17 43 4.8 16.1 0.00 6.58 0.00 74 1016.6
20260502150153 17 30 4.8 16.1 0.00 6.58 0.00 73 1016.6
20260502130130 13 319 1.6 8.0 0.00 6.81 0.00 90 1015.3
20260502123626 12 237 0.0 3.2 0.00 6.81 0.00 91 1015.1
20260502123125 12 326 0.0 8.0 0.00 6.83 0.00 91 1015.1
20260502122626 12 320 1.6 8.0 0.00 6.83 0.00 91 1014.9
20260502122127 12 330 1.6 6.4 0.00 6.83 0.00 92 1014.7
20260502121623 12 319 0.0 6.4 0.00 6.83 0.00 92 1014.5
20260502121121 12 356 0.0 6.4 0.00 6.83 0.00 93 1014.4
20260502120621 11 4 0.0 6.4 0.00 6.83 0.00 93 1014.4
20260502120122 11 28 0.0 4.8 0.00 6.86 0.00 93 1014.5
20260502115621 11 3 1.6 9.7 0.00 6.86 0.00 93 1014.5
20260502115121 11 15 1.6 9.7 0.00 6.86 0.00 93 1014.4
20260502114613 11 300 1.6 11.3 0.00 6.86 0.00 92 1014.4
20260502114114 11 302 1.6 11.3 0.00 6.86 0.00 92 1014.4
20260502113846 12 338 1.6 11.3 0.00 6.86 0.00 92 1014.2
20260502113115 12 302 3.2 9.7 0.00 6.86 0.00 92 1014.1
20260502112614 12 349 1.6 9.7 0.00 6.86 0.00 92 1014.0
20260502112114 12 5 1.6 11.3 0.00 6.86 0.00 92 1014.0
20260502111610 12 9 1.6 11.3 0.00 6.86 0.00 92 1013.9
20260502111341 12 313 0.0 6.4 0.00 6.86 0.00 92 1013.8
20260502110607 12 303 0.0 8.0 0.00 6.86 0.00 92 1013.8
20260502110108 12 314 0.0 8.0 0.00 6.86 0.00 92 1013.9
20260502105608 12 328 0.0 4.8 0.00 6.86 0.00 91 1014.0
20260502105108 12 354 0.0 4.8 0.00 6.86 0.00 91 1013.9
20260502104601 12 349 0.0 4.8 0.00 6.86 0.00 91 1013.8
20260502104100 12 343 0.0 3.2 0.00 6.86 0.00 91 1013.7
20260502103558 12 330 0.0 1.6 0.00 6.86 0.00 90 1013.7
20260502103056 12 330 0.0 3.2 0.00 6.86 0.00 90 1013.7
20260502102828 12 330 0.0 3.2 0.00 6.86 0.00 89 1013.6
20260502102322 12 12 0.0 8.0 0.00 6.86 0.00 89 1013.5
20260502101550 12 274 0.0 8.0 0.00 6.86 0.00 89 1013.3
20260502101321 12 81 0.0 6.4 0.00 6.88 0.00 90 1013.2
20260502100551 12 94 0.0 4.8 0.00 6.88 0.00 89 1013.1
20260502091035 13 60 3.2 9.7 0.00 6.93 0.00 90 1012.2
20260502090816 13 335 3.2 9.7 0.00 6.93 0.00 91 1012.2
20260502090536 13 40 3.2 9.7 0.00 6.93 0.00 90 1012.2
20260502071522 13 30 3.2 16.1 0.00 6.96 0.00 92 1012.0
20260502071017 13 326 3.2 14.5 0.00 6.96 0.00 92 1012.2
20260502070517 13 288 3.2 14.5 0.00 6.96 0.00 92 1012.1
20260502070018 13 93 4.8 16.1 0.00 6.96 0.00 92 1012.0
20260502065517 13 13 4.8 16.1 0.00 6.96 0.00 92 1012.0
20260502065017 13 319 3.2 14.5 0.00 6.96 0.00 92 1012.0
20260502064518 13 340 3.2 14.5 0.00 6.96 0.00 93 1011.9
20260502064012 13 338 1.6 6.4 0.00 6.96 0.00 93 1012.0
20260502063513 13 58 1.6 8.0 0.00 6.96 0.00 93 1011.9
20260502063019 13 326 1.6 11.3 0.00 6.96 0.00 94 1011.8
20260502063012 13 72 1.6 11.3 0.00 6.96 0.00 93 1011.9
20260502062012 13 346 1.6 22.5 0.00 6.96 0.00 94 1011.8
20260502061514 13 109 3.2 22.5 0.00 6.96 0.00 94 1011.7
20260502061009 13 51 3.2 12.9 0.00 6.96 0.00 94 1011.6
20260502060508 13 340 1.6 9.7 0.00 6.96 0.00 94 1011.6
20260502060008 13 49 1.6 11.3 0.00 6.99 0.00 94 1011.5
20260502055508 13 119 3.2 19.3 0.00 6.99 0.00 93 1011.6
20260502055009 13 350 3.2 19.3 0.00 7.01 0.00 93 1011.6
20260502054510 13 3 3.2 17.7 0.00 7.04 0.00 93 1011.6
20260502054236 13 46 3.2 17.7 0.00 7.06 0.00 94 1011.5
20260502053602 13 78 3.2 16.1 0.00 7.21 0.00 95 1011.5
20260502053548 13 19 3.2 12.9 0.00 7.14 0.00 94 1011.5
20260502053449 13 60 3.2 14.5 0.00 7.19 0.00 94 1011.5
20260502053336 13 56 4.8 17.7 0.00 7.21 0.00 94 1011.5
20260502053232 13 65 4.8 17.7 0.00 7.21 0.00 94 1011.5
20260502051506 13 78 3.2 16.1 0.00 7.21 0.00 95 1011.5
20260502050959 13 21 3.2 16.1 0.00 7.24 0.00 95 1011.6
20260502050458 13 349 3.2 14.5 0.00 7.24 0.00 95 1011.6
20260502045959 13 80 1.6 12.9 0.00 7.26 7.26 95 1011.6
20260502045459 13 44 1.6 12.9 0.00 7.26 7.26 96 1011.5
20260502044959 13 11 1.6 16.1 0.00 7.26 7.26 96 1011.4
20260502044457 13 12 3.2 16.1 0.00 7.26 7.26 96 1011.5
20260502043955 13 58 1.6 12.9 0.00 7.26 7.26 96 1011.4
20260502043454 13 89 1.6 14.5 0.00 7.26 7.26 96 1011.4
20260502042956 13 68 1.6 14.5 0.00 7.26 7.26 96 1011.4
20260502042453 13 41 1.6 12.9 0.00 7.26 7.26 96 1011.6
20260502041953 13 346 1.6 8.0 0.00 7.26 7.26 96 1011.5
20260502041719 13 355 1.6 12.9 0.00 7.26 7.26 96 1011.6
20260502040950 13 35 1.6 12.9 0.00 7.26 7.26 97 1011.4
20260502040448 13 312 1.6 9.7 0.00 7.29 7.26 97 1011.5
20260502035947 13 70 3.2 9.7 0.00 7.29 7.26 97 1011.4
20260502035719 13 109 3.2 22.5 0.00 7.29 7.26 97 1011.4
20260502034946 13 351 3.2 22.5 0.00 7.29 7.26 97 1011.2
20260502034444 13 60 3.2 14.5 0.00 7.29 7.26 97 1011.2
20260502033944 13 305 4.8 14.5 0.00 7.29 7.26 97 1011.2
20260502033444 13 96 4.8 16.1 0.00 7.29 7.26 97 1011.2
20260502032944 13 343 3.2 16.1 0.00 7.29 7.26 97 1011.1
20260502032717 13 58 3.2 12.9 0.00 7.29 7.26 97 1010.9
20260502031945 13 23 4.8 12.9 0.00 7.29 7.26 97 1010.7
20260502031445 13 321 3.2 14.5 0.00 7.29 7.26 97 1010.7
20260502030945 13 52 3.2 12.9 0.00 7.32 7.26 97 1010.3
20260502030938 13 338 3.2 14.5 0.00 7.32 7.26 97 1010.5
20260502025938 13 53 1.6 11.3 0.03 7.32 7.26 97 1010.2
20260502025439 14 26 1.6 11.3 0.03 7.32 7.26 97 1010.3
20260502025209 14 58 3.2 12.9 0.03 7.32 7.26 97 1009.9
20260502024436 14 6 3.2 12.9 0.05 7.32 7.26 97 1009.8
20260502023931 14 51 3.2 17.7 0.05 7.32 7.26 97 1009.7
20260502023430 14 222 3.2 17.7 0.05 7.32 7.26 98 1009.5
20260502023201 14 35 1.6 12.9 0.08 7.32 7.26 98 1009.3
20260502022430 14 356 1.6 6.4 0.08 7.32 7.26 98 1009.4
20260502021929 14 34 1.6 6.4 0.08 7.32 7.26 98 1009.3
20260502021429 14 127 1.6 6.4 0.08 7.32 7.26 98 1009.1
20260502021155 14 41 1.6 12.9 0.08 7.32 7.26 98 1009.2
20260502020424 14 352 3.2 12.9 0.08 7.32 7.26 98 1009.5
20260502015923 14 64 3.2 12.9 0.08 7.29 7.24 98 1009.4
20260502015424 14 358 1.6 12.9 0.10 7.29 7.24 98 1009.4
20260502014924 15 44 1.6 14.5 0.13 7.29 7.24 98 1009.4
20260502014424 15 354 1.6 14.5 0.10 7.26 7.21 98 1009.4
20260502014156 14 37 3.2 16.1 0.10 7.26 7.21 98 1009.5
20260502013421 14 13 3.2 16.1 0.13 7.26 7.21 98 1009.2
20260502012921 15 348 3.2 16.1 0.10 7.24 7.19 98 1009.0
20260502012420 15 34 3.2 16.1 0.10 7.24 7.19 97 1008.9
20260502011922 15 318 1.6 9.7 0.10 7.24 7.19 98 1009.1
20260502011419 15 303 1.6 9.7 0.13 7.24 7.19 98 1009.0
20260502010919 15 224 1.6 12.9 0.13 7.24 7.19 98 1008.5
20260502010415 15 358 1.6 12.9 0.15 7.24 7.19 98 1008.3
20260502005915 15 27 3.2 12.9 0.18 7.21 7.16 98 1008.3
20260502005412 15 316 3.2 12.9 0.28 7.19 7.14 97 1008.3
20260502004913 15 349 1.6 9.7 0.38 7.16 7.11 98 1008.3
20260502004411 15 19 3.2 16.1 0.53 7.16 7.11 98 1008.3
20260502003911 15 28 3.2 16.1 0.64 7.16 7.11 97 1008.2
20260502003408 15 323 1.6 12.9 0.61 7.14 7.11 98 1007.8
20260502002909 15 319 3.2 12.9 0.64 7.14 7.09 98 1007.8
20260502002640 15 290 1.6 9.7 0.64 7.14 7.09 97 1007.4
20260502001909 15 356 3.2 11.3 0.64 7.14 7.09 97 1007.2
20260502001407 15 27 3.2 17.7 0.64 7.11 7.06 97 1007.4
20260502000905 15 37 1.6 17.7 0.74 7.11 7.06 97 1007.6
20260502000405 15 10 1.6 9.7 0.79 7.09 7.04 97 1007.5
20260501235907 15 350 3.2 11.3 0.81 7.04 6.99 97 1007.5
20260501235406 15 309 3.2 14.5 0.76 6.91 6.91 97 1007.5
20260501234913 15 318 4.8 20.9 0.74 6.78 6.73 97 1007.5
20260501234405 15 124 4.8 20.9 0.84 6.63 6.60 97 1007.7
20260501233906 15 354 3.2 19.3 0.76 6.53 6.50 97 1007.3
20260501233407 15 11 3.2 19.3 0.76 6.53 6.48 97 1006.6
20260501233139 15 63 4.8 17.7 0.74 6.50 6.48 97 1006.4
20260501232405 15 64 4.8 17.7 0.74 6.50 6.45 97 1005.3
20260501232137 15 40 3.2 16.1 0.74 6.50 6.45 97 1005.7
20260501231406 15 45 3.2 16.1 0.71 6.48 6.43 97 1006.1
20260501230907 15 23 1.6 12.9 0.61 6.38 6.35 97 1006.4
20260501230402 16 6 3.2 12.9 0.51 6.27 6.25 97 1006.4
20260501225859 16 113 4.8 16.1 0.46 6.22 6.17 97 1006.4
20260501225400 16 53 4.8 16.1 0.38 6.15 6.12 97 1006.2
20260501224900 16 16 4.8 16.1 0.30 6.05 6.02 97 1005.8
20260501224631 16 55 3.2 14.5 0.05 5.79 5.77 97 1006.5
20260501223901 16 281 4.8 20.9 0.03 5.77 5.71 98 1006.5
20260501223626 16 63 4.8 20.9 0.05 5.77 5.71 97 1006.0
20260501222857 16 46 4.8 12.9 0.08 5.77 5.71 98 1006.1
20260501222626 16 45 4.8 19.3 0.08 5.77 5.71 98 1006.1
20260501221855 16 43 6.4 22.5 0.08 5.77 5.71 97 1005.9
20260501221356 16 60 4.8 22.5 0.08 5.77 5.71 97 1005.7
20260501220857 16 20 4.8 20.9 0.08 5.77 5.71 98 1005.7
20260501220351 16 24 4.8 20.9 0.08 5.77 5.71 98 1005.8
20260501215853 16 37 3.2 16.1 0.10 5.77 5.71 98 1006.2
20260501215353 16 340 3.2 16.1 0.10 5.77 5.71 98 1006.3
20260501214851 16 354 1.6 16.1 0.10 5.74 5.69 98 1006.3
20260501214352 16 309 1.6 12.9 0.25 5.74 5.69 98 1006.4
20260501213853 16 48 3.2 19.3 0.30 5.74 5.69 98 1006.5
20260501213348 16 27 3.2 19.3 0.33 5.71 5.66 98 1006.6
20260501212848 16 43 3.2 11.3 0.33 5.69 5.64 98 1006.2
20260501212349 16 319 3.2 19.3 0.36 5.69 5.64 98 1006.7
20260501212120 16 357 1.6 19.3 0.38 5.69 5.64 98 1006.8
20260501211349 16 46 0.0 6.4 0.43 5.69 5.64 98 1006.1
20260501210849 16 349 1.6 4.8 0.43 5.69 5.64 98 1006.2
20260501210349 16 85 1.6 8.0 0.48 5.69 5.64 98 1006.4
20260501205847 16 70 1.6 8.0 0.48 5.66 5.61 98 1005.8
20260501205348 16 54 3.2 9.7 0.48 5.66 5.61 98 1006.0
20260501204848 16 148 3.2 11.3 0.48 5.64 5.59 98 1005.4
20260501204349 17 51 3.2 12.9 0.36 5.49 5.49 98 1004.9
20260501203847 17 79 3.2 12.9 0.36 5.41 5.38 98 1005.4
20260501203346 17 352 3.2 20.9 0.46 5.38 5.33 98 1004.9
20260501202845 17 314 3.2 20.9 0.56 5.36 5.31 98 1004.8
20260501202342 17 121 3.2 11.3 0.79 5.33 5.28 98 1004.6
20260501201841 17 91 3.2 16.1 0.97 5.28 5.23 98 1004.8
20260501201340 17 329 3.2 16.1 1.14 5.26 5.21 98 1004.8
20260501200840 17 18 3.2 17.7 1.27 5.23 5.18 98 1005.2
20260501200334 17 83 4.8 17.7 1.32 5.21 5.18 98 1005.2
20260501195833 17 76 3.2 11.3 1.30 5.18 5.13 98 1004.8
20260501195334 17 55 1.6 4.8 1.32 5.18 5.13 98 1005.2
20260501194833 17 32 3.2 16.1 1.32 5.16 5.11 98 1005.4
20260501194333 17 41 6.4 16.1 1.32 5.13 5.11 98 1004.9
20260501193834 17 75 6.4 16.1 1.30 5.05 5.03 98 1004.6
20260501193334 17 71 6.4 17.7 1.19 4.93 4.88 97 1004.8
20260501192833 17 46 6.4 17.7 1.09 4.80 4.75 97 1004.5
20260501192336 17 65 3.2 16.1 0.89 4.55 4.55 97 1003.9
20260501191832 17 39 1.6 11.3 0.69 4.32 4.29 98 1004.7
20260501191326 17 307 1.6 11.3 0.51 4.11 4.06 97 1005.5
20260501190824 17 335 3.2 8.0 0.36 3.94 3.91 97 1005.4
20260501190325 17 1 3.2 12.9 0.38 3.89 3.86 97 1005.0
20260501190055 17 35 3.2 17.7 0.51 3.86 3.81 97 1004.8
20260501185324 17 40 3.2 17.7 0.66 3.84 3.81 97 1004.8
20260501184824 17 110 6.4 20.9 0.71 3.84 3.78 97 1004.6
20260501184321 17 63 8.0 20.9 0.66 3.78 3.76 97 1003.9
20260501183823 17 58 9.7 20.9 0.66 3.76 3.73 97 1004.5
20260501183552 17 96 9.7 20.9 0.64 3.73 3.68 97 1004.5
20260501183053 17 79 4.8 17.7 0.58 3.68 3.66 97 1004.5
20260501182322 17 47 3.2 12.9 0.58 3.66 3.61 98 1006.3
20260501181823 17 4 4.8 20.9 0.56 3.63 3.58 97 1006.6
20260501181322 17 30 9.7 22.5 0.56 3.61 3.56 97 1005.7
20260501181051 17 88 9.7 22.5 0.56 3.58 3.53 97 1005.0
20260501180318 17 28 6.4 22.5 0.51 3.51 3.48 97 1005.0
20260501175815 17 56 3.2 12.9 0.41 3.30 3.30 97 1005.9
20260501175317 17 318 1.6 17.7 0.43 3.15 3.12 97 1006.6
20260501174814 17 29 1.6 17.7 0.51 3.12 3.07 97 1006.3
20260501174314 17 19 1.6 11.3 0.53 3.12 3.07 97 1006.2
20260501173808 17 122 3.2 11.3 0.51 3.10 3.07 97 1006.0
20260501173308 17 127 3.2 9.7 0.51 3.10 3.05 97 1005.9
20260501173038 17 8 3.2 9.7 0.56 3.10 3.05 97 1005.7
20260501172537 17 7 1.6 11.3 0.56 3.07 3.02 97 1006.0
20260501171809 17 23 3.2 19.3 0.74 3.07 3.02 97 1006.0
20260501171308 17 51 3.2 19.3 1.60 3.05 3.00 97 1005.9
20260501170803 17 57 3.2 14.5 2.01 3.02 2.97 97 1005.8
20260501170302 17 72 3.2 14.5 2.21 2.97 2.95 97 1006.2
20260501165801 17 335 4.8 14.5 2.13 2.90 2.84 97 1006.4
20260501165306 17 53 3.2 14.5 1.98 2.72 2.69 97 1006.6
20260501164800 17 123 3.2 12.9 1.88 2.62 2.57 97 1007.3
20260501164259 17 308 3.2 11.3 1.85 2.59 2.54 97 1007.0
20260501163757 17 54 3.2 14.5 1.85 2.59 2.54 97 1006.6